Terminal Aerodrome Forecast
Issued by NWS Dallas/Fort Worth, TX

Home | Current Version | Previous Version | Text Only | Print | Product List | Glossary On
Versions: 1 2 3 4 5 6 7 8 9 10 11 12 13 14 15 16 17 18 19 20 21 22 23 24 25 26 27 28 29 30 31 32 33 34 35 36
000
FTUS44 KFWD 181459 AAB
TAFDFW
TAF AMD
KDFW 181459Z 1815/1918 17004KT P6SM SCT120
     FM181800 13008KT P6SM BKN025
     FM190000 14008KT P6SM VCTS SCT040 BKN070CB
      TEMPO 1900/1902 4SM -TSRA BKN025CB
     FM190400 13005KT P6SM VCSH SCT030 BKN120=

USA.gov is the U.S. government's official web portal to all federal, state and local government web resources and services.